sat.trackr.live / text

‹ back to catalog

STARLINK-34996

NORAD 65223 · 2025-176AB

PAYLOAD ACTIVE UNKNOWN

§ Identity

Operator
Country
US
Launch date
2025-08-14
Launch site
AFETR
Launch vehicle
Mass (kg)
RCS (m²)

Purposes: comms

External: N2YO · Heavens-Above · Gunter

§ Orbital elements

Epoch: 2026-09-20T10:51:22.794624Z

Period
93.85 min
Inclination
53.1609°
Eccentricity
0.0001705
Mean motion
15.34415010 rev/d
Perigee alt
461.5 km
Apogee alt
463.8 km
Semi-major
6,840.8 km
B*
5.8630e-4
RAAN
324.2286°
Arg perigee
52.0488°
Mean anomaly
308.0669°
Rev number
6,299

§ Raw data

STARLINK-349961 65223U 25176AB  26263.45234716  .00019494  00000+0  58630-3 0  99912 65223  53.1609 324.2286 0001705  52.0488 308.0669 15.34415010 62993

JSON: /api/v1/satellites/65223 · /tle

For live sub-satellite position, see the globe view (requires WebGL).

§ Visibility from observer

Set your observer location to see the next 7 days of passes ≥ 10°. The values pass through the URL so the page stays shareable.

No JS? Fill the form by hand. The geolocation button needs JavaScript.